Weather in Tyreso

Sweden     59°14′39″N   18°16′34″E
temp.,
°C
wind,
m/s
gust,
m/s
humid.,
%
clouds,
%
prec.,
mm/h
press.,
hPa
HPBL,
m
7 may, fri
fri723:00+2nw5796100 0.3 999630
02:00+2nw5897100 0.3 999553
05:00+2nw5994100 0.1 1000851
08:00+2nw588394 0.3 1001977
11:00+3nw6980100 0.1 1002980
14:00+3nnw688888 0.5 1004773
17:00+6n356357 0.1 10041024
20:00+5wnw116557 0.2 100513
8 may, sat
sat823:00+2wsw368917 0.0 1007152
02:00+1wsw378750 0.0 1007168
05:00+1w37865 0.0 1007137
08:00+6w356118 0.0 1008310
11:00+9wsw354977 0.0 10091454
14:00+10sw455179 0.2 10091341
17:00+9ssw576177 0.3 1010905
20:00+7ssw51069100 0.4 1010330
9 may, sun
sun923:00+5sw41084100 0.1 1011207
02:00+5wsw4978100 0.1 1011215
05:00+4sw3977100 0.0 1011225
08:00+7ssw4971100 0.0 1012366
11:00+8s51067100 0.0 1011847
14:00+5sse71393100 2.7 1009951
17:00+6s51195100 2.7 1007424
20:00+8ssw5129470 3.1 1007256
10 may, mon
mon1023:00+7ssw4995100 0.0 1008119
02:00+9ssw41090100 0.0 1009151
05:00+9s3697100 0.4 101097
08:00+8s51293100 0.6 1011219
11:00+11s81684100 0.0 1011363
14:00+12s9186968 0.0 1011444
17:00+11s81970100 0.0 1012456
20:00+10s718805 0.0 1013431
11 may, tue
tue1123:00+9s51486100 0.0 1013320
02:00+8s5139269 0.0 1013244
05:00+7s4996100 0.0 1013163
08:00+10s4685100 0.0 1014177
11:00+12sse5679100 0.0 1015271
14:00+12sse577825 0.0 1015334
17:00+11sse487825 0.0 1014228
20:00+9sse388770 0.0 1014134